Location: Kolin
(50.0330°N, 15.2000°E)
Time: 19:52:43
(UTC+01:00)

ISS - Pass Details

Date: 27 November 2019
Orbit: 411 x 421 km, 51.6° (Epoch: 07 December)

Event Time Altitude Azimuth Distance (km) Brightness Sun altitude
Rises 17:37:04 0° 241° (WSW) 2,349 1.7 -14.5°
Reaches altitude 10° 17:39:09 10° 239° (WSW) 1,490 0.3 -14.9°
Maximum altitude 17:42:28 64° 157° (SSE) 468 -3.6 -15.4°
Enters shadow 17:43:38 36° 89° (E) 682 -3.2 -15.6°
